Regional Weather Roundup
Issued by NWS Memphis, TN

Home | Current Version | Previous Version | Text Only | Print | Product List | Glossary On
Versions: 1 2 3 4 5 6 7 8 9 10 11 12 13 14 15 16 17 18 19 20 21 22 23 24 25 26 27 28 29 30 31 32 33 34 35 36 37 38 39 40 41 42 43 44 45 46 47 48 49 50
000
ASUS44 KMEG 281110
RWRMEG
MEMPHIS CWA HOURLY WEATHER ROUNDUP
NATIONAL WEATHER SERVICE MEMPHIS TN
600 AM CDT TUE APR 28 2015

...WEST TENNESSEE...

CITY           SKY/WX    TMP DP  RH WIND       PRES   REMARKS
MEMPHIS INTL   CLOUDY    54  41  61 NE10      29.97F
NWS MEMPHIS      N/A     52 N/A N/A MISG        N/A
JACKSON        CLOUDY    48  41  76 NE5       29.99R
LEXINGTON      CLEAR     46  39  76 N5        29.97R
SAVANNAH       CLEAR     45  32  61 CALM      29.96R
DYERSBURG      CLOUDY    50  30  46 NE8       30.02S
UNION CITY     CLEAR     43  32  65 N5        30.01S
PARIS          CLEAR     41  37  87 NE7       30.01S


...EASTERN ARKANSAS...

CITY           SKY/WX    TMP DP  RH WIND       PRES   REMARKS
JONESBORO      CLOUDY    50  42  74 N8        30.02S
WEST MEMPHIS   CLOUDY    53  43  68 NE8       29.98S
BATESVILLE     CLOUDY    52  39  62 N3        30.04S
NEWPORT        CLOUDY    51  44  77 N9        30.03F
WALNUT RIDGE   CLOUDY    48  39  71 N7        30.03F
BLYTHEVILLE    CLOUDY    50  43  77 NE7       30.02R
SEARCY         CLOUDY    54  43  66 NE8       30.02F
STUTTGART      CLOUDY    55  43  62 NE14      29.98S
PINE BLUFF     LGT RAIN  54  46  74 N9        29.96F
MONTICELLO     CLOUDY    56  44  64 N3        29.95R


...NORTH MISSISSIPPI...

CITY           SKY/WX    TMP DP  RH WIND       PRES   REMARKS
TUPELO         PTCLDY    49  41  74 NE10      29.92R
OXFORD         PTCLDY    46  39  76 NE8       29.95S
OLIVE BRANCH   CLEAR     48  45  87 NE7       29.97S
TUNICA         CLOUDY    52  45  76 N9        29.97S
CLARKSDALE     CLOUDY    52  45  76 N9        29.96S
CORINTH        PTCLDY    50  41  71 NE8       29.94R
GREENWOOD      CLEAR     50  44  80 N9        29.90R
COLUMBUS       CLEAR     46  41  84 VRB2      29.89R
STARKVILLE     FAIR      48  45  87 NW3       29.90R
GOLDEN TRIANGL CLEAR     48  43  81 N6        29.88R


...SOUTHEAST MISSOURI...

CITY           SKY/WX    TMP DP  RH WIND       PRES   REMARKS
WEST PLAINS    MOCLDY    43  36  76 N6        30.07S
POPLAR BLUFF   PTCLDY    44  39  82 N3        30.05R
CAPE GIRARDEAU CLEAR     47  37  68 NE12      30.06R


...NORTHWEST ALABAMA...

CITY           SKY/WX    TMP DP  RH WIND       PRES   REMARKS
MUSCLE SHOALS  PTCLDY    48  39  71 NE5       29.93F


...MIDDLE TENNESSEE...

CITY           SKY/WX    TMP DP  RH WIND       PRES   REMARKS
NASHVILLE      PTCLDY    46  40  79 N9        30.00R
CLARKSVILLE    FAIR      45  39  79 NE6       30.01S
COLUMBIA       CLEAR     41  32  70 CALM      29.95S


...WESTERN KENTUCKY...

CITY           SKY/WX    TMP DP  RH WIND       PRES   REMARKS
PADUCAH        CLEAR     43  38  82 NE5       30.04R
FORT CAMPBELL  FAIR      43  39  86 N8        30.01S


...CENTRAL ARKANSAS...

CITY           SKY/WX    TMP DP  RH WIND       PRES   REMARKS
LITTLE ROCK    LGT RAIN  56  42  59 NE10      29.98F


SKY/WX REPORTED AS FAIR MEANS FEW OR NO CLOUDS BELOW
12 THOUSAND FEET.



USA.gov is the U.S. government's official web portal to all federal, state and local government web resources and services.